OE-11349 Weather Reports


time (UTC)temp
F
wind
direction
speed
knots
gust
knots
rain 1hr
in
rain 24hr
in
rain mn
in
humidity
%
barometer
mb
20260903100510 63 33 5.2 12.2 0.00 0.00 0.00 45 857.7
20260903095510 62 41 4.3 13.9 0.00 0.00 0.00 46 857.7
20260903094122 62 28 2.6 12.2 0.00 0.00 0.00 49 857.7
20260903093510 62 44 3.5 13.0 0.00 0.00 0.00 49 857.8
20260903091123 62 24 4.3 17.4 0.00 0.00 0.00 52 857.9
20260903090510 61 38 6.1 17.4 0.00 0.00 0.00 48 857.9
20260903085509 61 33 1.7 11.3 0.00 0.00 0.00 50 857.8
20260903084122 61 31 3.5 12.2 0.00 0.00 0.00 50 857.8
20260903083510 61 41 2.6 11.3 0.00 0.00 0.00 50 857.8
20260903082510 61 48 4.3 13.0 0.00 0.00 0.00 50 857.8
20260903081123 60 41 3.5 13.9 0.00 0.00 0.00 50 857.8
20260903080510 60 29 2.6 9.6 0.00 0.00 0.00 52 857.7
20260903075510 60 29 5.2 14.8 0.00 0.00 0.00 52 857.7
20260903074123 59 25 4.3 12.2 0.00 0.00 0.00 52 857.7
20260903073509 59 26 3.5 14.8 0.00 0.00 0.00 54 857.7
20260903072509 59 34 5.2 13.0 0.00 0.00 0.00 54 857.7
20260903071123 59 48 4.3 10.4 0.00 0.00 0.00 57 857.7
20260903070510 58 38 3.5 11.3 0.00 0.00 0.00 57 857.7
20260903065510 57 38 2.6 12.2 0.00 0.00 0.00 57 857.7
20260903064122 57 51 2.6 11.3 0.00 0.00 0.00 58 857.5
20260903063509 55 84 2.6 10.4 0.00 0.00 0.00 60 857.6
20260903062510 55 76 3.5 8.7 0.00 0.00 0.00 60 857.6
20260903061123 55 93 1.7 9.6 0.00 0.00 0.00 60 857.6
20260903060510 54 78 1.7 7.8 0.00 0.00 0.00 62 857.6
20260903055509 54 26 1.7 10.4 0.00 0.00 0.00 63 857.5
20260903054122 54 53 2.6 8.7 0.00 0.00 0.00 64 857.4
20260903053510 54 69 3.5 11.3 0.00 0.00 0.00 62 857.4
20260903052510 54 60 1.7 7.8 0.00 0.00 0.00 63 857.3
20260903051123 54 58 1.7 7.0 0.00 0.00 0.00 62 857.3
20260903050509 54 360 0.0 4.3 0.00 0.00 0.00 62 857.3
20260903045510 55 106 2.6 7.0 0.00 0.00 0.00 60 857.2
20260903044122 54 115 2.6 6.1 0.00 0.00 0.00 62 857.3
20260903043509 55 136 2.6 7.8 0.00 0.00 0.00 61 857.3
20260903042510 54 178 1.7 5.2 0.00 0.00 0.00 62 857.3
20260903041122 54 127 2.6 7.0 0.00 0.00 0.00 63 857.3
20260903040510 53 125 0.9 3.5 0.00 0.00 0.00 66 857.3
20260903035510 55 50 1.7 7.0 0.00 0.00 0.00 60 857.4
20260903034509 53 54 1.7 6.1 0.00 0.00 0.00 64 857.4
20260903033510 53 43 0.0 5.2 0.00 0.00 0.00 66 857.4
20260903032510 54 76 1.7 5.2 0.00 0.00 0.00 62 857.4
20260903031123 53 67 1.7 4.3 0.00 0.00 0.00 64 857.4
20260903030510 54 76 1.7 4.3 0.00 0.00 0.00 63 857.4
20260903025510 55 113 2.6 7.0 0.00 0.00 0.00 60 857.4
20260903024510 55 96 1.7 5.2 0.00 0.00 0.00 60 857.5
20260903023510 55 87 2.6 7.8 0.00 0.00 0.00 60 857.4
20260903022510 55 100 1.7 5.2 0.00 0.00 0.00 62 857.5
20260903021122 55 114 1.7 4.3 0.00 0.00 0.00 64 857.5
20260903020510 55 179 0.9 2.6 0.00 0.00 0.00 62 857.6
20260903015510 55 93 0.9 3.5 0.00 0.00 0.00 64 857.6
20260903014122 55 332 0.9 8.7 0.00 0.00 0.00 62 857.6
20260903013509 55 344 0.0 8.7 0.00 0.00 0.00 67 857.6
20260903012509 55 13 0.9 5.2 0.00 0.00 0.00 66 857.6
20260903011123 55 18 1.7 6.1 0.00 0.00 0.00 66 857.6
20260903010510 55 33 2.6 6.1 0.00 0.00 0.00 64 857.6
20260903005510 55 22 3.5 6.1 0.00 0.00 0.00 67 857.6
20260903004123 55 31 4.3 7.8 0.00 0.00 0.00 64 857.5
20260903003510 55 1 1.7 7.0 0.00 0.00 0.00 64 857.5
20260903002510 54 19 1.7 7.0 0.00 0.00 0.00 69 857.5
20260903001522 53 312 0.9 6.1 0.00 0.00 0.00 70 857.5
20260903000509 54 18 0.9 5.2 0.00 0.00 0.00 71 857.6
20260902235509 55 87 1.7 6.1 0.00 0.00 0.00 64 857.5
20260902234123 55 105 0.9 4.3 0.00 0.00 0.00 64 857.5
20260902233509 54 103 0.9 6.1 0.00 0.00 0.00 74 857.6
20260902232509 53 73 0.9 8.7 0.00 0.00 0.00 72 857.6
20260902231510 52 130 0.9 4.3 0.00 0.00 0.00 82 857.6
20260902230509 52 148 4.3 6.1 0.00 0.00 0.00 83 857.6
20260902225510 51 151 6.1 7.8 0.00 0.00 0.00 86 857.6
20260902224123 51 150 5.2 7.0 0.00 0.00 0.00 89 857.5
20260902223511 51 151 5.2 7.8 0.00 0.00 0.00 86 857.4
20260902222510 52 156 5.2 7.0 0.00 0.00 0.00 84 857.4
20260902221123 51 155 6.1 7.8 0.00 0.00 0.00 91 857.4
20260902220509 52 171 4.3 7.0 0.00 0.00 0.00 87 857.4
20260902215509 52 164 6.1 9.6 0.00 0.00 0.00 88 857.4
20260902214123 52 156 7.0 13.0 0.00 0.00 0.00 92 857.6
20260902213509 53 152 7.8 12.2 0.00 0.00 0.00 96 857.5
20260902211123 55 174 4.3 6.1 0.00 0.00 0.00 90 857.3
20260902210510 55 162 4.3 7.0 0.00 0.00 0.00 89 857.2
20260902205510 55 161 2.6 4.3 0.00 0.00 0.00 88 857.2
20260902204124 55 146 2.6 3.5 0.00 0.00 0.00 88 857.2
20260902203509 55 155 2.6 3.5 0.00 0.00 0.00 87 857.2
20260902202510 55 184 0.9 2.6 0.00 0.00 0.00 86 857.4
20260902201123 55 172 0.9 1.7 0.00 0.00 0.00 86 857.3
20260902200510 55 185 0.9 2.6 0.00 0.00 0.00 88 857.1
20260902195510 55 82 0.0 3.5 0.00 0.00 0.00 89 857.1
20260902194123 55 145 0.9 3.5 0.00 0.00 0.00 89 857.1
20260902193510 55 154 3.5 4.3 0.00 0.00 0.00 89 857.1
20260902192509 55 147 2.6 4.3 0.00 0.00 0.00 88 857.1
20260902191123 55 172 2.6 5.2 0.00 0.00 0.00 87 857.0
20260902190509 56 152 4.3 5.2 0.00 0.00 0.00 86 856.9
20260902185510 56 156 2.6 4.3 0.00 0.00 0.00 85 856.8
20260902184123 56 154 2.6 3.5 0.00 0.00 0.00 86 856.7
20260902183510 56 160 2.6 4.3 0.00 0.00 0.00 85 856.6
20260902182510 57 178 2.6 5.2 0.00 0.00 0.00 84 856.6
20260902181123 57 182 2.6 5.2 0.00 0.00 0.00 84 856.4
20260902180510 57 181 3.5 5.2 0.00 0.00 0.00 85 856.4
20260902175510 57 206 1.7 5.2 0.00 0.00 0.00 85 856.3
20260902174123 57 167 3.5 6.1 0.00 0.00 0.00 84 856.2
20260902173509 58 170 3.5 6.1 0.00 0.00 0.00 83 856.2
20260902172510 58 164 3.5 6.1 0.00 0.00 0.00 74 856.0
20260902171123 59 163 4.3 6.1 0.00 0.00 0.00 74 855.9
20260902170510 59 163 3.5 5.2 0.00 0.00 0.00 71 855.8
20260902165510 59 185 1.7 4.3 0.00 0.00 0.00 70 855.9
20260902164123 59 179 3.5 5.2 0.00 0.00 0.00 74 855.8
20260902163510 60 161 4.3 7.0 0.00 0.00 0.00 71 855.8
20260902162510 60 158 5.2 7.0 0.00 0.00 0.00 71 855.9
20260902161123 60 160 3.5 6.1 0.00 0.00 0.00 67 855.9
20260902160509 60 179 4.3 7.0 0.00 0.00 0.00 67 855.9
20260902155510 61 177 4.3 7.0 0.00 0.00 0.00 65 855.9
20260902154123 61 163 4.3 7.0 0.00 0.00 0.00 67 855.9
20260902153510 61 174 3.5 7.8 0.00 0.00 0.00 68 856.0
20260902152509 61 181 3.5 6.1 0.00 0.00 0.00 74 856.0
20260902151123 61 170 3.5 7.0 0.00 0.00 0.00 74 856.0
20260902150510 61 175 4.3 7.0 0.00 0.00 0.00 70 856.0
20260902145510 61 174 5.2 8.7 0.00 0.00 0.00 70 856.0
20260902144123 61 174 3.5 7.8 0.00 0.00 0.00 70 856.0
20260902143509 62 158 4.3 9.6 0.00 0.00 0.00 67 855.9
20260902142510 63 177 4.3 8.7 0.00 0.00 0.00 67 856.0
20260902141123 62 168 4.3 7.8 0.00 0.00 0.00 67 856.0
20260902140510 62 159 5.2 9.6 0.00 0.00 0.00 66 856.0
20260902135510 62 176 5.2 9.6 0.00 0.00 0.00 69 856.0
20260902134121 62 183 3.5 7.8 0.00 0.00 0.00 68 856.0
20260902133510 63 157 6.1 12.2 0.00 0.00 0.00 68 855.9
20260902132510 62 153 7.0 11.3 0.00 0.00 0.00 68 856.0
20260902131123 62 172 5.2 10.4 0.00 0.00 0.00 68 856.1
20260902130510 63 172 4.3 9.6 0.00 0.00 0.00 68 856.2
20260902125510 63 172 5.2 12.2 0.00 0.00 0.00 63 856.2
20260902124122 63 180 5.2 9.6 0.00 0.00 0.00 63 856.2
20260902123510 63 181 4.3 11.3 0.00 0.00 0.00 66 856.2
20260902122510 63 178 5.2 13.9 0.00 0.00 0.00 66 856.3
20260902121123 63 173 4.3 9.6 0.00 0.00 0.00 66 856.5
20260902120509 63 168 4.3 9.6 0.00 0.00 0.00 63 856.5
20260902115509 63 186 4.3 8.7 0.00 0.00 0.00 63 856.6
20260902114123 63 177 5.2 11.3 0.00 0.00 0.00 63 856.6
20260902113510 62 159 6.1 11.3 0.00 0.00 0.00 67 856.7
20260902112510 62 160 6.1 11.3 0.00 0.00 0.00 67 856.7
20260902111123 62 162 6.1 12.2 0.00 0.00 0.00 78 856.9
20260902110510 61 166 6.1 13.9 0.00 0.00 0.00 78 856.9
20260902105509 60 160 7.0 12.2 0.00 0.00 0.00 78 857.0
20260902104123 60 163 7.0 13.9 0.00 0.00 0.00 78 857.1
20260902103510 60 154 7.0 11.3 0.00 0.00 0.00 78 857.2
20260902102509 59 159 6.1 11.3 0.00 0.00 0.00 79 857.2
20260902101123 60 155 6.1 11.3 0.00 0.00 0.00 76 857.3